• In Austria
  • List of Countries
  • For 7 days
  • Water Temperature
  • Satellite Maps
  • Weather Map
  • News
  • Weather Widgets
  • user-avatar
    Login

    Hourly Weather Kipungo

    Today, 19 July, Thursday

    Time Temperature Precipitation Wind Pressure Humidity
    00:00 +15°C° 0 mm 2 mps 655 mmHg 46%
    01:00 +14°C° 0 mm 2 mps 655 mmHg 49%
    02:00 +13°C° 0 mm 2 mps 655 mmHg 53%
    03:00 +13°C° 0 mm 2 mps 655 mmHg 56%
    04:00 +12°C° 0 mm 2 mps 655 mmHg 60%
    05:00 +12°C° 0 mm 2 mps 655 mmHg 62%
    06:00 +12°C° 0 mm 2 mps 655 mmHg 63%
    07:00 +12°C° 0 mm 1 mps 655 mmHg 65%
    08:00 +15°C° 0 mm 2 mps 656 mmHg 55%
    09:00 +18°C° 0 mm 3 mps 657 mmHg 46%
    10:00 +21°C° 0 mm 4 mps 657 mmHg 36%
    11:00 +24°C° 0 mm 3 mps 657 mmHg 31%
    12:00 +26°C° 0 mm 3 mps 657 mmHg 26%
    13:00 +28°C° 0 mm 2 mps 657 mmHg 21%
    14:00 +28°C° 0 mm 2 mps 656 mmHg 20%
    15:00 +28°C° 0 mm 2 mps 656 mmHg 19%
    16:00 +29°C° 0 mm 1 mps 656 mmHg 18%
    17:00 +26°C° 0 mm 1 mps 655 mmHg 22%
    18:00 +23°C° 0 mm 1 mps 655 mmHg 26%
    19:00 +20°C° 0 mm 1 mps 654 mmHg 30%
    20:00 +19°C° 0 mm 1 mps 655 mmHg 32%
    21:00 +19°C° 0 mm 1 mps 655 mmHg 34%
    22:00 +18°C° 0 mm 1 mps 655 mmHg 36%
    23:00 +16°C° 0 mm 1 mps 655 mmHg 38%

    Tomorrow, 20 July, Friday

    Time Temperature Precipitation Wind Pressure Humidity
    00:00 +15°C° 0 mm 1 mps 655 mmHg 40%
    01:00 +14°C° 0 mm 1 mps 655 mmHg 43%
    02:00 +13°C° 0 mm 1 mps 654 mmHg 46%
    03:00 +13°C° 0 mm 1 mps 654 mmHg 48%
    04:00 +12°C° 0 mm 1 mps 654 mmHg 51%
    05:00 +12°C° 0 mm 1 mps 654 mmHg 52%
    06:00 +12°C° 0 mm 1 mps 654 mmHg 54%
    07:00 +12°C° 0 mm 1 mps 654 mmHg 55%
    08:00 +15°C° 0 mm 2 mps 655 mmHg 46%
    09:00 +19°C° 0 mm 3 mps 656 mmHg 38%
    10:00 +22°C° 0 mm 3 mps 657 mmHg 29%
    11:00 +25°C° 0 mm 3 mps 657 mmHg 26%
    12:00 +27°C° 0 mm 3 mps 657 mmHg 22%
    13:00 +29°C° 0 mm 3 mps 656 mmHg 18%
    14:00 +29°C° 0 mm 2 mps 656 mmHg 17%
    15:00 +29°C° 0 mm 2 mps 655 mmHg 17%
    16:00 +29°C° 0 mm 2 mps 655 mmHg 16%
    17:00 +27°C° 0 mm 1 mps 654 mmHg 19%
    18:00 +24°C° 0 mm 1 mps 654 mmHg 23%
    19:00 +21°C° 0 mm 1 mps 654 mmHg 27%
    20:00 +20°C° 0 mm 1 mps 654 mmHg 29%
    21:00 +19°C° 0 mm 1 mps 654 mmHg 30%
    22:00 +18°C° 0 mm 1 mps 655 mmHg 32%
    23:00 +16°C° 0 mm 1 mps 655 mmHg 34%

    Day after tomorrow, 21 July, Saturday

    Time Temperature Precipitation Wind Pressure Humidity
    00:00 +15°C° 0 mm 1 mps 654 mmHg 37%
    01:00 +15°C° 0 mm 1 mps 654 mmHg 39%
    02:00 +14°C° 0 mm 1 mps 654 mmHg 42%
    03:00 +13°C° 0 mm 1 mps 653 mmHg 45%
    04:00 +13°C° 0 mm 1 mps 653 mmHg 47%
    05:00 +13°C° 0 mm 1 mps 653 mmHg 49%
    06:00 +13°C° 0 mm 1 mps 654 mmHg 50%
    07:00 +12°C° 0 mm 1 mps 654 mmHg 51%
    08:00 +16°C° 0 mm 2 mps 655 mmHg 43%
    09:00 +20°C° 0 mm 3 mps 656 mmHg 35%
    10:00 +24°C° 0 mm 3 mps 657 mmHg 26%
    11:00 +27°C° 0 mm 3 mps 657 mmHg 23%
    12:00 +29°C° 0 mm 2 mps 657 mmHg 19%
    13:00 +31°C° 0 mm 2 mps 657 mmHg 15%
    14:00 +31°C° 0 mm 2 mps 656 mmHg 15%
    15:00 +31°C° 0 mm 1 mps 656 mmHg 14%
    16:00 +31°C° 0 mm 1 mps 655 mmHg 13%
    17:00 +28°C° 0 mm 1 mps 655 mmHg 17%
    18:00 +25°C° 0 mm 1 mps 655 mmHg 20%
    19:00 +22°C° 0 mm 1 mps 654 mmHg 23%
    20:00 +21°C° 0 mm 1 mps 655 mmHg 25%
    21:00 +20°C° 0 mm 1 mps 655 mmHg 26%
    22:00 +19°C° 0 mm 1 mps 656 mmHg 28%
    23:00 +18°C° 0 mm 1 mps 655 mmHg 30%

    22 July, Sunday

    Time Temperature Precipitation Wind Pressure Humidity
    00:00 +16°C° 0 mm 1 mps 655 mmHg 32%
    01:00 +16°C° 0 mm 1 mps 655 mmHg 34%
    02:00 +15°C° 0 mm 1 mps 654 mmHg 36%
    03:00 +14°C° 0 mm 1 mps 654 mmHg 38%
    04:00 +12°C° 0 mm 0 mps 654 mmHg 40%
    05:00 +13°C° 0 mm 1 mps 654 mmHg 41%
    06:00 +13°C° 0 mm 1 mps 655 mmHg 42%
    07:00 +13°C° 0 mm 1 mps 655 mmHg 43%
    08:00 +17°C° 0 mm 2 mps 656 mmHg 37%
    09:00 +21°C° 0 mm 3 mps 657 mmHg 31%
    10:00 +25°C° 0 mm 3 mps 658 mmHg 25%
    11:00 +27°C° 0 mm 3 mps 657 mmHg 22%
    12:00 +29°C° 0 mm 3 mps 657 mmHg 18%
    13:00 +32°C° 0 mm 2 mps 657 mmHg 15%
    14:00 +32°C° 0 mm 2 mps 657 mmHg 14%
    15:00 +32°C° 0 mm 1 mps 656 mmHg 14%
    16:00 +32°C° 0 mm 1 mps 656 mmHg 13%
    17:00 +29°C° 0 mm 1 mps 656 mmHg 16%
    18:00 +26°C° 0 mm 1 mps 655 mmHg 19%
    19:00 +23°C° 0 mm 1 mps 655 mmHg 22%
    20:00 +22°C° 0 mm 1 mps 656 mmHg 24%
    21:00 +21°C° 0 mm 1 mps 656 mmHg 25%
    22:00 +20°C° 0 mm 1 mps 656 mmHg 27%
    23:00 +19°C° 0 mm 1 mps 656 mmHg 29%

    23 July, Monday

    Time Temperature Precipitation Wind Pressure Humidity
    00:00 +18°C° 0 mm 1 mps 656 mmHg 31%
    01:00 +16°C° 0 mm 1 mps 655 mmHg 33%
    02:00 +15°C° 0 mm 1 mps 655 mmHg 34%
    03:00 +15°C° 0 mm 1 mps 655 mmHg 36%
    04:00 +14°C° 0 mm 1 mps 655 mmHg 37%
    05:00 +14°C° 0 mm 1 mps 655 mmHg 38%
    06:00 +14°C° 0 mm 1 mps 655 mmHg 40%
    07:00 +14°C° 0 mm 1 mps 656 mmHg 41%
    08:00 +17°C° 0 mm 2 mps 656 mmHg 35%
    09:00 +21°C° 0 mm 3 mps 657 mmHg 29%
    10:00 +25°C° 0 mm 4 mps 658 mmHg 23%
    11:00 +27°C° 0 mm 4 mps 658 mmHg 21%
    12:00 +29°C° 0 mm 3 mps 657 mmHg 18%
    13:00 +31°C° 0 mm 3 mps 657 mmHg 15%
    14:00 +31°C° 0 mm 3 mps 656 mmHg 15%
    15:00 +31°C° 0 mm 2 mps 656 mmHg 14%
    16:00 +32°C° 0 mm 2 mps 656 mmHg 13%
    17:00 +29°C° 0 mm 2 mps 655 mmHg 16%
    18:00 +26°C° 0 mm 1 mps 655 mmHg 19%
    19:00 +23°C° 0 mm 1 mps 655 mmHg 22%
    20:00 +22°C° 0 mm 1 mps 655 mmHg 23%
    21:00 +21°C° 0 mm 1 mps 655 mmHg 25%
    22:00 +20°C° 0 mm 1 mps 655 mmHg 26%
    23:00 +19°C° 0 mm 1 mps 655 mmHg 27%

    24 July, Tuesday

    Time Temperature Precipitation Wind Pressure Humidity
    00:00 +18°C° 0 mm 1 mps 655 mmHg 29%
    01:00 +16°C° 0 mm 1 mps 655 mmHg 31%
    02:00 +15°C° 0 mm 1 mps 654 mmHg 33%
    03:00 +15°C° 0 mm 1 mps 654 mmHg 36%
    04:00 +14°C° 0 mm 1 mps 654 mmHg 38%
    05:00 +14°C° 0 mm 1 mps 654 mmHg 39%
    06:00 +14°C° 0 mm 1 mps 655 mmHg 41%
    07:00 +13°C° 0 mm 1 mps 655 mmHg 42%
    08:00 +17°C° 0 mm 2 mps 656 mmHg 35%
    09:00 +21°C° 0 mm 3 mps 657 mmHg 28%
    10:00 +26°C° 0 mm 3 mps 658 mmHg 22%
    11:00 +28°C° 0 mm 3 mps 657 mmHg 19%
    12:00 +29°C° 0 mm 3 mps 657 mmHg 16%
    13:00 +31°C° 0 mm 2 mps 657 mmHg 13%
    14:00 +32°C° 0 mm 2 mps 656 mmHg 13%
    15:00 +32°C° 0 mm 2 mps 656 mmHg 12%
    16:00 +32°C° 0 mm 2 mps 655 mmHg 11%
    17:00 +29°C° 0 mm 1 mps 655 mmHg 14%
    18:00 +26°C° 0 mm 1 mps 655 mmHg 17%
    19:00 +23°C° 0 mm 1 mps 655 mmHg 20%
    20:00 +22°C° 0 mm 1 mps 655 mmHg 21%
    21:00 +21°C° 0 mm 1 mps 655 mmHg 22%
    22:00 +20°C° 0 mm 1 mps 655 mmHg 24%
    23:00 +19°C° 0 mm 1 mps 655 mmHg 26%
    Show more